FW5145 Weather Reports


Display with metric or nautical units.
time (UTC)temp
F
wind
direction
speed
MPH
gust
MPH
rain 1hr
in
rain 24hr
in
rain mn
in
humidity
%
barometer
mb
20260510101544 52 62 6.0 15.0 0.00 0.00 0.00 100 1016.5
20260510101031 52 63 6.0 17.0 0.00 0.00 0.00 100 1016.5
20260510100531 51 79 5.0 17.0 0.00 0.00 0.00 100 1016.5
20260510100109 51 343 5.0 15.0 0.00 0.00 0.00 100 1016.4
20260510095532 51 24 6.0 16.0 0.00 0.00 0.00 100 1016.5
20260510095031 51 54 6.0 16.0 0.00 0.00 0.00 100 1016.5
20260510094541 51 104 4.0 14.0 0.00 0.00 0.00 100 1016.6
20260510094033 51 39 3.0 14.0 0.00 0.00 0.00 100 1016.6
20260510093532 50 40 5.0 11.0 0.00 0.00 0.00 100 1016.5
20260510093048 50 56 5.0 12.0 0.00 0.00 0.00 100 1016.5
20260510092532 50 28 5.0 14.0 0.00 0.00 0.00 100 1016.6
20260510092031 50 5 4.0 14.0 0.00 0.00 0.00 100 1016.6
20260510091544 50 268 6.0 14.0 0.00 0.00 0.00 100 1016.7
20260510091033 51 21 4.0 13.0 0.00 0.00 0.00 100 1016.8
20260510090533 51 28 5.0 13.0 0.00 0.00 0.00 100 1016.7
20260510090045 51 15 3.0 13.0 0.00 0.00 0.00 100 1016.7
20260510085535 51 352 5.0 12.0 0.00 0.00 0.00 100 1016.8
20260510085031 51 24 2.0 13.0 0.00 0.00 0.00 100 1017.0
20260510084543 50 26 5.0 13.0 0.00 0.00 0.00 100 1017.0
20260510084031 50 25 4.0 12.0 0.00 0.00 0.00 100 1017.0
20260510083531 50 39 3.0 12.0 0.00 0.00 0.00 100 1017.0
20260510083052 50 82 4.0 12.0 0.00 0.00 0.00 100 1016.9
20260510082531 50 34 3.0 12.0 0.00 0.00 0.00 100 1017.1
20260510082032 50 360 3.0 13.0 0.00 0.00 0.00 100 1017.1
20260510081547 50 20 5.0 13.0 0.00 0.00 0.00 100 1017.1
20260510081031 50 14 2.0 9.0 0.00 0.00 0.00 100 1017.1
20260510080532 50 42 2.0 15.0 0.00 0.00 0.00 100 1017.0
20260510080043 50 346 3.0 15.0 0.00 0.00 0.00 100 1017.0
20260510075533 50 52 5.0 15.0 0.00 0.00 0.00 100 1016.9
20260510075031 50 11 3.0 12.0 0.00 0.00 0.00 100 1016.8
20260510074545 50 5 4.0 12.0 0.00 0.00 0.00 100 1016.9
20260510074035 50 54 5.0 11.0 0.00 0.00 0.00 100 1016.9
20260510073531 50 62 3.0 11.0 0.00 0.00 0.00 100 1016.9
20260510073049 50 94 4.0 12.0 0.00 0.00 0.00 100 1017.0
20260510072531 50 29 4.0 12.0 0.00 0.00 0.00 100 1017.0
20260510072034 50 17 3.0 9.0 0.00 0.00 0.00 100 1017.0
20260510071601 49 117 4.0 11.0 0.00 0.00 0.00 100 1016.9
20260510071031 49 46 4.0 11.0 0.00 0.00 0.00 100 1017.1
20260510070532 49 22 3.0 11.0 0.00 0.00 0.00 100 1017.0
20260510070037 49 15 4.0 11.0 0.00 0.00 0.00 100 1017.0
20260510065532 49 59 2.0 10.0 0.00 0.00 0.00 100 1017.0
20260510065035 49 345 3.0 12.0 0.00 0.00 0.00 100 1017.1
20260510064544 49 41 3.0 12.0 0.00 0.00 0.00 100 1017.1
20260510064031 49 352 3.0 10.0 0.00 0.00 0.00 100 1017.0
20260510063531 48 11 3.0 10.0 0.00 0.00 0.00 100 1017.1
20260510063045 48 43 2.0 9.0 0.00 0.00 0.00 100 1017.1
20260510062532 48 59 2.0 9.0 0.00 0.00 0.00 100 1017.2
20260510062032 48 40 3.0 9.0 0.00 0.00 0.00 100 1017.1
20260510061548 48 28 4.0 9.0 0.00 0.00 0.00 100 1017.1
20260510061031 48 31 3.0 8.0 0.00 0.00 0.00 100 1017.1
20260510060533 48 14 2.0 10.0 0.00 0.00 0.00 100 1017.1
20260510060046 48 24 2.0 10.0 0.00 0.00 0.00 100 1017.0
20260510055532 48 12 3.0 8.0 0.00 0.00 0.00 100 1017.0
20260510055032 48 46 3.0 9.0 0.00 0.00 0.00 100 1016.9
20260510054548 48 42 4.0 11.0 0.00 0.00 0.00 100 1016.9
20260510054032 48 71 2.0 11.0 0.00 0.00 0.00 100 1016.9
20260510053531 48 56 4.0 11.0 0.00 0.00 0.00 100 1016.8
20260510053043 48 36 2.0 10.0 0.00 0.00 0.00 100 1016.8
20260510052533 48 47 2.0 13.0 0.00 0.00 0.00 100 1017.0
20260510052031 48 17 3.0 13.0 0.00 0.00 0.00 100 1016.9
20260510051543 48 5 4.0 11.0 0.00 0.00 0.00 100 1016.8
20260510051031 48 36 4.0 9.0 0.00 0.00 0.00 100 1016.9
20260510050531 48 67 3.0 10.0 0.00 0.00 0.00 100 1016.8
20260510050041 48 80 3.0 10.0 0.00 0.00 0.00 100 1016.8
20260510045532 48 22 3.0 9.0 0.00 0.00 0.00 100 1016.8
20260510045031 47 43 2.0 10.0 0.00 0.00 0.00 100 1016.8
20260510044537 47 360 3.0 10.0 0.00 0.00 0.00 100 1016.7
20260510044035 47 53 2.0 10.0 0.00 0.00 0.00 100 1016.9
20260510043532 47 30 3.0 10.0 0.00 0.00 0.00 100 1016.8
20260510043047 47 61 3.0 10.0 0.00 0.00 0.00 100 1016.7
20260510042531 47 32 2.0 12.0 0.00 0.00 0.00 100 1016.7
20260510042034 47 11 4.0 12.0 0.00 0.00 0.00 100 1016.7
20260510041543 47 30 4.0 9.0 0.00 0.00 0.00 100 1016.8
20260510041031 47 352 4.0 11.0 0.00 0.00 0.00 100 1016.9
20260510040535 47 352 3.0 11.0 0.00 0.00 0.00 100 1016.8
20260510040042 47 13 4.0 9.0 0.00 0.00 0.00 100 1017.1
20260510035531 48 43 4.0 11.0 0.00 0.00 0.00 100 1017.0
20260510035033 48 335 4.0 11.0 0.00 0.00 0.00 100 1017.1
20260510034547 48 347 4.0 9.0 0.00 0.00 0.00 100 1017.1
20260510034033 48 5 3.0 12.0 0.00 0.00 0.00 100 1017.0
20260510033531 48 10 5.0 12.0 0.00 0.00 0.00 100 1017.1
20260510033100 48 39 3.0 10.0 0.00 0.00 0.00 100 1017.1
20260510032535 48 351 3.0 10.0 0.00 0.00 0.00 100 1017.1
20260510032032 48 15 3.0 8.0 0.00 0.00 0.00 100 1017.1
20260510031549 48 25 2.0 9.0 0.00 0.00 0.00 100 1017.2
20260510031031 48 360 3.0 9.0 0.00 0.00 0.00 100 1017.3
20260510030531 48 57 2.0 11.0 0.00 0.00 0.00 100 1017.2
20260510030044 48 120 3.0 11.0 0.00 0.00 0.00 100 1017.2
20260510025532 48 86 4.0 11.0 0.00 0.00 0.00 100 1017.2
20260510025031 48 304 3.0 9.0 0.00 0.00 0.00 100 1017.2
20260510024545 48 29 3.0 10.0 0.00 0.00 0.00 100 1017.1
20260510024032 48 51 2.0 11.0 0.00 0.00 0.00 100 1017.1
20260510023533 49 14 4.0 12.0 0.00 0.00 0.00 100 1017.2
20260510023044 49 29 4.0 13.0 0.00 0.00 0.00 100 1017.0
20260510022533 49 35 4.0 13.0 0.00 0.00 0.00 100 1017.1
20260510022033 49 16 5.0 11.0 0.00 0.00 0.00 100 1017.0
20260510021544 49 30 4.0 11.0 0.00 0.00 0.00 100 1017.1
20260510021031 49 11 5.0 11.0 0.00 0.00 0.00 100 1017.1
20260510020531 49 31 4.0 10.0 0.00 0.00 0.00 100 1017.1
20260510020045 49 23 3.0 11.0 0.00 0.00 0.00 100 1017.2
20260510015532 49 130 3.0 11.0 0.00 0.00 0.00 100 1017.2
20260510015033 49 74 4.0 13.0 0.00 0.00 0.00 100 1017.2
20260510014550 49 30 4.0 16.0 0.00 0.00 0.00 100 1017.1
20260510014032 50 53 4.0 16.0 0.00 0.00 0.00 100 1017.3
20260510013533 50 43 5.0 16.0 0.00 0.00 0.00 100 1017.2
20260510013038 50 9 5.0 12.0 0.00 0.00 0.00 100 1017.2
20260510012532 50 74 4.0 11.0 0.00 0.00 0.00 100 1017.3
20260510012033 50 26 4.0 8.0 0.00 0.00 0.00 100 1017.2
20260510011553 50 25 2.0 11.0 0.00 0.00 0.00 100 1017.3
20260510011032 50 51 4.0 11.0 0.00 0.00 0.00 100 1017.3
20260510010531 50 69 4.0 11.0 0.00 0.00 0.00 100 1017.4
20260510010043 50 47 3.0 9.0 0.00 0.00 0.00 100 1017.4
20260510005533 50 46 3.0 9.0 0.00 0.00 0.00 100 1017.4
20260510005031 50 9 2.0 10.0 0.00 0.00 0.00 100 1017.5
20260510004548 50 36 2.0 10.0 0.00 0.00 0.00 100 1017.4
20260510004031 51 39 3.0 8.0 0.00 0.00 0.00 100 1017.3
20260510003532 51 11 2.0 8.0 0.00 0.00 0.00 100 1017.3
20260510003103 51 36 3.0 10.0 0.00 0.00 0.00 100 1017.2
20260510002531 51 24 3.0 10.0 0.00 0.00 0.00 100 1017.3
20260510002031 51 46 3.0 8.0 0.00 0.00 0.00 100 1017.4
20260510001540 51 51 2.0 8.0 0.00 0.00 0.00 100 1017.4
20260510001032 51 22 2.0 9.0 0.00 0.00 0.00 100 1017.4
20260510000532 51 5 3.0 10.0 0.00 0.00 0.00 100 1017.5
20260510000046 52 9 3.0 10.0 0.00 0.00 0.00 100 1017.5
20260509235531 52 23 3.0 10.0 0.00 0.00 0.00 100 1017.5
20260509235032 52 76 3.0 9.0 0.00 0.00 0.00 100 1017.5
20260509234559 52 5 3.0 10.0 0.00 0.00 0.00 100 1017.6
20260509234032 52 55 3.0 10.0 0.00 0.00 0.00 100 1017.6
20260509233531 52 15 3.0 10.0 0.00 0.00 0.00 100 1017.5
20260509233042 52 105 3.0 10.0 0.00 0.00 0.00 100 1017.6
20260509232532 52 21 3.0 9.0 0.00 0.00 0.00 100 1017.6
20260509232031 52 68 4.0 9.0 0.00 0.00 0.00 100 1017.6
20260509231547 52 28 3.0 9.0 0.00 0.00 0.00 100 1017.5
20260509231032 52 53 3.0 9.0 0.00 0.00 0.00 100 1017.6
20260509230531 52 5 3.0 8.0 0.00 0.00 0.00 100 1017.7
20260509230053 52 39 3.0 8.0 0.00 0.00 0.00 100 1017.6
20260509225533 53 65 2.0 8.0 0.00 0.00 0.00 100 1017.7
20260509225031 53 105 2.0 8.0 0.00 0.00 0.00 100 1017.7
20260509224543 53 26 2.0 7.0 0.00 0.00 0.00 100 1017.6
20260509224032 53 56 2.0 6.0 0.00 0.00 0.00 100 1017.6
20260509223532 53 46 2.0 7.0 0.00 0.00 0.00 100 1017.6
20260509223036 53 28 2.0 7.0 0.00 0.00 0.00 100 1017.5
20260509222531 53 17 3.0 7.0 0.00 0.00 0.00 100 1017.5
20260509222035 53 73 2.0 8.0 0.00 0.00 0.00 100 1017.4
20260509221543 53 36 2.0 8.0 0.00 0.00 0.00 100 1017.7
20260509221032 53 62 1.0 6.0 0.00 0.00 0.00 100 1017.6
20260509220531 53 33 2.0 9.0 0.00 0.00 0.00 100 1017.6
20260509220043 53 40 1.0 9.0 0.00 0.00 0.00 100 1017.6
20260509215532 53 44 2.0 9.0 0.00 0.00 0.00 100 1017.5
20260509215033 53 44 2.0 8.0 0.00 0.00 0.00 100 1017.5
20260509214542 53 324 2.0 8.0 0.00 0.00 0.00 100 1017.5
20260509214031 53 22 2.0 6.0 0.00 0.00 0.00 100 1017.5
20260509213531 53 53 1.0 6.0 0.00 0.00 0.00 100 1017.6
20260509213041 53 47 1.0 6.0 0.00 0.00 0.00 100 1017.7
20260509212535 53 5 2.0 6.0 0.00 0.00 0.00 100 1017.6
20260509212032 53 50 1.0 5.0 0.00 0.00 0.00 100 1017.7
20260509211540 54 30 1.0 7.0 0.00 0.00 0.00 100 1017.7
20260509211031 54 86 2.0 8.0 0.00 0.00 0.00 100 1017.5
20260509210534 54 335 2.0 8.0 0.00 0.00 0.00 100 1017.5
20260509210050 54 53 1.0 8.0 0.00 0.00 0.00 100 1017.4
20260509205532 54 28 2.0 8.0 0.00 0.00 0.00 100 1017.6
20260509205031 54 54 2.0 8.0 0.00 0.00 0.00 100 1017.6
20260509204543 54 34 2.0 8.0 0.00 0.00 0.00 100 1017.5
20260509204032 54 58 2.0 8.0 0.00 0.00 0.00 100 1017.4
20260509203531 54 24 1.0 8.0 0.00 0.00 0.00 100 1017.4
20260509203041 55 22 2.0 8.0 0.00 0.00 0.00 100 1017.2
20260509202533 55 42 2.0 6.0 0.00 0.00 0.00 100 1017.1
20260509202032 55 61 2.0 6.0 0.00 0.00 0.00 100 1017.1
20260509201540 55 59 2.0 7.0 0.00 0.00 0.00 100 1017.2
20260509201031 55 36 2.0 7.0 0.00 0.00 0.00 100 1017.2
20260509200536 55 90 2.0 6.0 0.00 0.00 0.00 100 1017.2
20260509200036 56 69 2.0 6.0 0.00 0.00 0.00 100 1017.1
20260509195532 56 22 2.0 5.0 0.00 0.00 0.00 100 1017.1
20260509195034 56 34 2.0 5.0 0.00 0.00 0.00 100 1017.1
20260509194543 56 26 2.0 5.0 0.00 0.00 0.00 100 1017.0
20260509194032 57 21 1.0 4.0 0.00 0.00 0.00 100 1017.0
20260509193532 57 43 2.0 9.0 0.00 0.00 0.00 100 1017.1
20260509193043 57 21 1.0 9.0 0.00 0.00 0.00 100 1017.1
20260509192532 57 53 3.0 9.0 0.00 0.00 0.00 100 1017.0
20260509192031 57 49 2.0 9.0 0.00 0.00 0.00 100 1017.0
20260509191542 58 42 2.0 9.0 0.00 0.00 0.00 100 1016.7
20260509191032 58 30 1.0 6.0 0.00 0.00 0.00 100 1016.6
20260509190532 58 46 2.0 8.0 0.00 0.00 0.00 100 1016.6
20260509190042 58 42 2.0 8.0 0.00 0.00 0.00 100 1016.6
20260509185534 59 24 2.0 10.0 0.00 0.00 0.00 100 1016.7
20260509185032 59 42 2.0 10.0 0.00 0.00 0.00 100 1016.6
20260509184545 59 31 3.0 8.0 0.00 0.00 0.00 100 1016.6
20260509184035 59 25 3.0 9.0 0.00 0.00 0.00 100 1016.5
20260509183535 60 96 2.0 10.0 0.00 0.00 0.00 100 1016.5
20260509183107 60 10 3.0 10.0 0.00 0.00 0.00 100 1016.5
20260509182533 60 34 2.0 8.0 0.00 0.00 0.00 100 1016.5
20260509182034 61 34 3.0 9.0 0.00 0.00 0.00 100 1016.4
20260509181600 61 44 3.0 9.0 0.00 0.00 0.00 100 1016.4
20260509181033 61 88 4.0 9.0 0.00 0.00 0.00 100 1016.4
20260509180532 62 21 3.0 9.0 0.00 0.00 0.00 100 1016.4
20260509180043 62 15 2.0 8.0 0.00 0.00 0.00 100 1016.4
20260509175533 62 55 2.0 12.0 0.00 0.00 0.00 100 1016.5
20260509175032 62 55 3.0 12.0 0.00 0.00 0.00 100 1016.3
20260509174549 62 62 4.0 10.0 0.00 0.00 0.00 100 1016.4
20260509174033 63 34 3.0 11.0 0.00 0.00 0.00 100 1016.4
20260509173531 63 25 3.0 11.0 0.00 0.00 0.00 100 1016.2
20260509173044 63 24 3.0 12.0 0.00 0.00 0.00 100 1016.1
20260509172532 63 30 3.0 12.0 0.00 0.00 0.00 100 1016.0
20260509172032 64 50 4.0 12.0 0.00 0.00 0.00 100 1016.1
20260509171535 64 44 4.0 11.0 0.00 0.00 0.00 100 1016.2
20260509171031 64 58 3.0 10.0 0.00 0.00 0.00 100 1016.3
20260509170531 65 36 3.0 13.0 0.00 0.00 0.00 100 1016.2
20260509170043 65 13 4.0 13.0 0.00 0.00 0.00 100 1016.3
20260509165531 65 26 2.0 12.0 0.00 0.00 0.00 100 1016.2
20260509165032 65 25 3.0 12.0 0.00 0.00 0.00 100 1016.2
20260509164546 65 33 2.0 9.0 0.00 0.00 0.00 100 1016.3
20260509164032 65 61 2.0 11.0 0.00 0.00 0.00 100 1016.3
20260509163532 65 9 2.0 11.0 0.00 0.00 0.00 100 1016.3
20260509163041 66 18 3.0 9.0 0.00 0.00 0.00 100 1016.4
20260509162533 66 66 3.0 9.0 0.00 0.00 0.00 100 1016.4
20260509162032 66 62 2.0 13.0 0.00 0.00 0.00 100 1016.3
20260509161538 66 360 4.0 13.0 0.00 0.00 0.00 100 1016.2
20260509161034 66 36 5.0 13.0 0.00 0.00 0.00 100 1016.3
20260509160532 66 55 3.0 13.0 0.00 0.00 0.00 100 1016.3
20260509160045 66 352 4.0 11.0 0.00 0.00 0.00 100 1016.3
20260509155532 66 53 4.0 12.0 0.00 0.00 0.00 100 1016.4
20260509155032 66 50 3.0 13.0 0.00 0.00 0.00 100 1016.4
20260509154554 66 9 6.0 13.0 0.00 0.00 0.00 100 1016.2
20260509154031 66 67 6.0 12.0 0.00 0.00 0.00 100 1016.3
20260509153534 67 28 5.0 11.0 0.00 0.00 0.00 100 1016.4
20260509153049 67 21 3.0 11.0 0.00 0.00 0.00 100 1016.4
20260509152531 67 41 4.0 11.0 0.00 0.00 0.00 100 1016.4
20260509152032 68 67 4.0 11.0 0.00 0.00 0.00 100 1016.6
20260509151553 68 26 2.0 9.0 0.00 0.00 0.00 100 1016.6
20260509151033 68 105 3.0 9.0 0.00 0.00 0.00 100 1016.8
20260509150532 68 30 2.0 10.0 0.00 0.00 0.00 100 1016.8
20260509150044 67 31 3.0 10.0 0.00 0.00 0.00 100 1016.9
20260509145533 67 5 4.0 11.0 0.00 0.00 0.00 100 1016.8
20260509145032 67 19 3.0 12.0 0.00 0.00 0.00 100 1016.8
20260509144545 67 57 3.0 12.0 0.00 0.00 0.00 100 1016.7
20260509144031 67 69 4.0 9.0 0.00 0.00 0.00 100 1016.8
20260509143531 67 15 3.0 11.0 0.00 0.00 0.00 100 1016.7
20260509143044 67 44 5.0 11.0 0.00 0.00 0.00 100 1016.7
20260509142531 68 77 3.0 12.0 0.00 0.00 0.00 100 1016.7
20260509142031 68 78 5.0 12.0 0.00 0.00 0.00 100 1016.6
20260509141552 67 19 2.0 10.0 0.00 0.00 0.00 100 1016.5
20260509141033 68 5 4.0 13.0 0.00 0.00 0.00 100 1016.5
20260509140532 67 18 3.0 13.0 0.00 0.00 0.00 100 1016.4
20260509140057 67 69 4.0 10.0 0.00 0.00 0.00 100 1016.4
20260509135532 67 63 3.0 10.0 0.00 0.00 0.00 100 1016.4
20260509135031 67 112 4.0 11.0 0.00 0.00 0.00 100 1016.5
20260509134541 67 10 4.0 11.0 0.00 0.00 0.00 100 1016.5
20260509134033 67 9 2.0 10.0 0.00 0.00 0.00 100 1016.5
20260509133535 67 65 3.0 10.0 0.00 0.00 0.00 100 1016.6
20260509133045 67 35 4.0 10.0 0.00 0.00 0.00 100 1016.6
20260509132532 67 22 4.0 10.0 0.00 0.00 0.00 100 1016.7
20260509132033 68 36 3.0 9.0 0.00 0.00 0.00 100 1016.6
20260509131543 68 68 3.0 9.0 0.00 0.00 0.00 100 1016.5
20260509131031 67 51 4.0 9.0 0.00 0.00 0.00 100 1016.6
20260509130534 67 337 3.0 9.0 0.00 0.00 0.00 100 1016.6
20260509130042 68 118 2.0 11.0 0.00 0.00 0.00 100 1016.7
20260509125534 67 86 2.0 11.0 0.00 0.00 0.00 100 1016.7
20260509125032 67 93 3.0 11.0 0.00 0.00 0.00 100 1016.7
20260509124541 67 360 1.0 8.0 0.00 0.00 0.00 100 1016.8
20260509124035 67 61 3.0 8.0 0.00 0.00 0.00 100 1016.8
20260509123532 67 75 2.0 11.0 0.00 0.00 0.00 100 1016.8
20260509123044 67 43 3.0 11.0 0.00 0.00 0.00 100 1016.9
20260509122536 67 339 4.0 10.0 0.00 0.00 0.00 100 1017.0
20260509122035 67 51 3.0 10.0 0.00 0.00 0.00 100 1017.0
20260509121543 67 76 3.0 11.0 0.00 0.00 0.00 100 1017.1
20260509121037 66 52 3.0 11.0 0.00 0.00 0.00 100 1017.2
20260509120536 67 17 3.0 10.0 0.00 0.00 0.00 100 1017.2
20260509120051 66 332 3.0 10.0 0.00 0.00 0.00 100 1017.2
20260509115535 67 28 2.0 10.0 0.00 0.00 0.00 100 1017.4
20260509115035 67 360 1.0 10.0 0.00 0.00 0.00 100 1017.4
20260509114542 66 28 4.0 11.0 0.00 0.00 0.00 100 1017.5
20260509114035 66 52 3.0 11.0 0.00 0.00 0.00 100 1017.5
20260509113532 66 360 2.0 9.0 0.00 0.00 0.00 100 1017.5
20260509113041 66 42 2.0 9.0 0.00 0.00 0.00 100 1017.6
20260509112532 66 31 3.0 8.0 0.00 0.00 0.00 100 1017.5
20260509112035 66 337 3.0 8.0 0.00 0.00 0.00 100 1017.7
20260509111539 66 67 3.0 8.0 0.00 0.00 0.00 100 1017.6
20260509111035 66 360 0.0 4.0 0.00 0.00 0.00 100 1017.6
20260509110532 65 17 1.0 6.0 0.00 0.00 0.00 100 1017.6
20260509110046 65 38 2.0 8.0 0.00 0.00 0.00 100 1017.7
20260509105535 65 82 2.0 8.0 0.00 0.00 0.00 100 1017.8
20260509105032 65 78 2.0 8.0 0.00 0.00 0.00 100 1017.8
20260509104545 65 76 2.0 8.0 0.00 0.00 0.00 100 1017.8
20260509104036 65 38 1.0 9.0 0.00 0.00 0.00 100 1017.9
20260509103532 65 108 3.0 9.0 0.00 0.00 0.00 100 1018.0
20260509103044 64 106 2.0 10.0 0.00 0.00 0.00 100 1017.9
20260509102535 64 33 2.0 10.0 0.00 0.00 0.00 100 1018.0
20260509102033 64 54 2.0 10.0 0.00 0.00 0.00 100 1018.0